Time,TemperatureF,DewpointF,PressureIn,WindDirection,WindDirectionDegrees,WindSpeedMPH,WindSpeedGustMPH,Humidity,HourlyPrecipIn,Conditions,Clouds,dailyrainin,SoftwareType,DateUTC
2013-02-08 21:53:00,37.0,23.2,29.04,NW,315,9.0,13.0,57,0.00,,,0.22,Weather View 32 v70,2013-02-09 02:53:00,
2013-02-08 21:58:00,37.0,23.2,29.04,WNW,292,11.0,20.0,57,0.00,,,0.22,Weather View 32 v70,2013-02-09 02:58:00,
2013-02-08 22:03:00,36.0,23.4,29.04,WNW,292,10.0,20.0,60,0.00,,,0.22,Weather View 32 v70,2013-02-09 03:03:00,
2013-02-08 22:08:00,36.0,23.4,29.04,NW,315,4.0,20.0,60,0.00,,,0.22,Weather View 32 v70,2013-02-09 03:08:00,
2013-02-08 22:13:00,36.0,23.0,29.04,WSW,247,6.0,20.0,59,0.00,,,0.22,Weather View 32 v70,2013-02-09 03:13:00,
2013-02-08 22:18:00,36.0,23.0,29.05,NW,315,4.0,20.0,59,0.00,,,0.22,Weather View 32 v70,2013-02-09 03:18:00,
2013-02-08 22:23:00,36.0,23.0,29.05,NW,315,12.0,20.0,59,0.00,,,0.22,Weather View 32 v70,2013-02-09 03:23:00,
2013-02-08 22:28:00,36.0,22.6,29.05,NNW,337,20.0,22.0,58,0.00,,,0.22,Weather View 32 v70,2013-02-09 03:28:00,
2013-02-08 22:33:00,36.0,23.0,29.04,NNW,337,12.0,22.0,59,0.00,,,0.22,Weather View 32 v70,2013-02-09 03:33:00,
2013-02-08 22:38:00,36.0,22.6,29.04,NNW,337,11.0,22.0,58,0.00,,,0.22,Weather View 32 v70,2013-02-09 03:38:00,
2013-02-08 22:43:00,35.0,21.7,29.05,NNW,337,6.0,22.0,58,0.00,,,0.22,Weather View 32 v70,2013-02-09 03:43:00,
2013-02-08 22:48:00,35.0,21.7,29.05,North,360,14.0,22.0,58,0.00,,,0.22,Weather View 32 v70,2013-02-09 03:48:00,
2013-02-08 22:53:00,35.0,21.7,29.05,West,270,8.0,22.0,58,0.00,,,0.22,Weather View 32 v70,2013-02-09 03:53:00,
2013-02-08 22:58:00,35.0,22.5,29.05,WNW,292,1.0,22.0,60,0.00,,,0.22,Weather View 32 v70,2013-02-09 03:58:00,
2013-02-08 23:03:00,35.0,22.1,29.04,WSW,247,8.0,22.0,59,0.00,,,0.22,Weather View 32 v70,2013-02-09 04:03:00,
2013-02-08 23:08:00,35.0,21.7,29.04,NW,315,21.0,25.0,58,0.00,,,0.22,Weather View 32 v70,2013-02-09 04:08:00,
2013-02-08 23:13:00,35.0,21.7,29.05,NW,315,10.0,25.0,58,0.00,,,0.22,Weather View 32 v70,2013-02-09 04:13:00,
2013-02-08 23:18:00,35.0,21.7,29.06,NNW,337,7.0,25.0,58,0.00,,,0.22,Weather View 32 v70,2013-02-09 04:18:00,
2013-02-08 23:23:00,35.0,21.7,29.06,NW,315,4.0,25.0,58,0.00,,,0.22,Weather View 32 v70,2013-02-09 04:23:00,
2013-02-08 23:28:00,34.0,20.8,29.06,West,270,2.0,25.0,58,0.00,,,0.22,Weather View 32 v70,2013-02-09 04:28:00,
2013-02-08 23:33:00,34.0,20.8,29.07,WNW,292,4.0,25.0,58,0.00,,,0.22,Weather View 32 v70,2013-02-09 04:33:00,
2013-02-08 23:38:00,34.0,20.8,29.07,WNW,292,2.0,25.0,58,0.00,,,0.22,Weather View 32 v70,2013-02-09 04:38:00,
2013-02-08 23:43:00,34.0,20.4,29.07,West,270,2.0,25.0,57,0.00,,,0.22,Weather View 32 v70,2013-02-09 04:43:00,
2013-02-08 23:48:00,34.0,20.4,29.07,NW,315,3.0,25.0,57,0.00,,,0.22,Weather View 32 v70,2013-02-09 04:48:00,
2013-02-08 23:53:00,34.0,20.8,29.07,WNW,292,10.0,25.0,58,0.00,,,0.22,Weather View 32 v70,2013-02-09 04:53:00,
2013-02-08 23:58:00,34.0,20.8,29.07,NNE,22,10.0,25.0,58,0.00,,,0.22,Weather View 32 v70,2013-02-09 04:58:00,